Location: Bijele Vode
(45.2833°N, 16.2000°E)
Time: 04:53:59
(UTC+00:00)

Cosmos 1125 Rocket - Pass Details

Date: 19 January 2021
Orbit: 757 x 781 km, 74.0° (Epoch: 05 March)

Event Time Altitude Azimuth Distance (km) Brightness Sun altitude
Rises 04:48:49 0° 347° (NNW) 3,261 6.5 -17.2°
Reaches altitude 10° 04:51:36 10° 360° (N) 2,334 5.9 -16.7°
Maximum altitude 04:56:00 26° 56° (NE) 1,504 5.5 -16.0°
Drops below altitude 10° 05:00:24 10° 112° (ESE) 2,331 7.4 -15.2°
Sets 05:03:09 0° 125° (SE) 3,256 8.1 -14.7°
